{"data":{"norad_id":68577,"epoch":"2026-05-25T04:00:03.998880Z","epoch_age_seconds":54471,"freshness":"FRESH","line1":"1 68577U 26072E   26145.16671295 -.00078009  00000+0 -83388-2 0  9992","line2":"2 68577  51.8961 292.6248 0004163 316.3116 293.3473 14.88698019  4956","mean_motion":14.88698019,"eccentricity":0.0004163,"inclination_deg":51.8961,"raan_deg":292.6248,"arg_perigee_deg":316.3116,"mean_anomaly_deg":293.3473,"bstar":-0.0083388,"rev_number":495,"period_min":96.728818176791,"perigee_km":599.0966488767,"apogee_km":604.90831300853,"semimajor_km":6980.1394809426,"source":"CELESTRAK","updated_at":"2026-05-25T13:38:07.946028Z"}}